CW3467 Weather Reports


Display with metric or nautical units.
time (UTC)temp
F
wind
direction
speed
MPH
gust
MPH
rain 1hr
in
rain 24hr
in
rain mn
in
humidity
%
barometer
mb
20260509141504 64 260 0.0 2.0 0.00 0.00 0.00 70 1011.8
20260509141025 64 250 0.0 1.0 0.00 0.00 0.00 70 1012.0
20260509140504 64 251 0.0 3.0 0.00 0.00 0.00 73 1012.2
20260509140005 63 251 1.0 3.0 0.00 0.00 0.00 75 1012.2
20260509135504 62 272 2.0 4.0 0.00 0.00 0.00 73 1012.2
20260509135025 62 292 3.0 7.0 0.00 0.00 0.00 75 1012.2
20260509134504 62 291 3.0 7.0 0.00 0.00 0.00 73 1012.4
20260509134004 62 280 2.0 6.0 0.00 0.00 0.00 74 1012.7
20260509133504 63 244 0.0 3.0 0.00 0.00 0.00 73 1012.7
20260509133004 63 237 0.0 3.0 0.00 0.00 0.00 71 1012.9
20260509132504 63 53 1.0 4.0 0.00 0.00 0.00 71 1012.9
20260509132004 63 36 1.0 4.0 0.00 0.00 0.00 74 1012.6
20260509131504 63 309 0.0 3.0 0.00 0.00 0.00 75 1012.6
20260509131004 63 286 0.0 3.0 0.00 0.00 0.00 71 1012.7
20260509130525 63 246 0.0 3.0 0.00 0.00 0.00 71 1012.5
20260509130004 63 260 1.0 4.0 0.00 0.00 0.00 68 1012.7
20260509125504 63 260 2.0 4.0 0.00 0.00 0.00 74 1012.7
20260509125004 63 278 2.0 7.0 0.00 0.00 0.00 71 1012.9
20260509124504 63 288 2.0 9.0 0.00 0.00 0.00 70 1013.0
20260509124025 63 280 2.0 9.0 0.00 0.00 0.00 70 1012.9
20260509123504 63 90 1.0 3.0 0.00 0.00 0.00 71 1013.0
20260509123004 63 51 1.0 3.0 0.00 0.00 0.00 72 1013.1
20260509122504 62 41 1.0 4.0 0.00 0.00 0.00 75 1013.1
20260509122004 63 18 1.0 4.0 0.00 0.00 0.00 74 1013.2
20260509121504 63 280 1.0 6.0 0.00 0.00 0.00 75 1013.3
20260509121004 62 277 1.0 6.0 0.00 0.00 0.00 74 1013.4
20260509120504 62 260 1.0 4.0 0.00 0.00 0.00 74 1013.4
20260509120004 62 311 1.0 4.0 0.00 0.00 0.00 72 1013.5
20260509115504 62 35 1.0 4.0 0.00 0.00 0.00 77 1013.6
20260509115004 62 58 1.0 4.0 0.00 0.00 0.00 74 1013.6
20260509114504 62 79 1.0 4.0 0.00 0.00 0.00 73 1013.6
20260509114004 63 69 1.0 4.0 0.00 0.00 0.00 73 1013.2
20260509113504 64 71 1.0 3.0 0.00 0.00 0.00 72 1013.4
20260509113004 64 74 0.0 3.0 0.00 0.00 0.00 69 1013.2
20260509112504 64 269 0.0 2.0 0.00 0.00 0.00 70 1013.3
20260509112004 64 254 0.0 2.0 0.00 0.00 0.00 71 1013.4
20260509111504 63 242 0.0 1.0 0.00 0.00 0.00 72 1013.4
20260509111004 63 16 1.0 3.0 0.00 0.00 0.00 71 1013.4
20260509110504 62 62 1.0 3.0 0.00 0.00 0.00 69 1013.6
20260509110004 63 20 1.0 2.0 0.00 0.00 0.00 70 1013.4
20260509105504 63 14 1.0 4.0 0.00 0.00 0.00 69 1013.6
20260509105004 63 27 1.0 4.0 0.00 0.00 0.00 70 1013.8
20260509104504 63 12 1.0 4.0 0.00 0.00 0.00 70 1014.0
20260509104004 63 155 0.0 3.0 0.00 0.00 0.00 71 1013.8
20260509103504 62 46 1.0 4.0 0.00 0.00 0.00 72 1014.0
20260509103004 62 45 1.0 4.0 0.00 0.00 0.00 69 1014.1
20260509102504 62 55 0.0 3.0 0.00 0.00 0.00 72 1014.1
20260509102004 62 322 0.0 2.0 0.00 0.00 0.00 71 1014.3
20260509101504 62 249 0.0 2.0 0.00 0.00 0.00 69 1014.2
20260509101004 62 273 1.0 3.0 0.00 0.00 0.00 69 1014.2
20260509100504 62 270 1.0 3.0 0.00 0.00 0.00 73 1014.0
20260509100005 62 255 1.0 2.0 0.00 0.00 0.00 71 1014.0
20260509095504 62 254 1.0 2.0 0.00 0.00 0.00 72 1014.1
20260509095004 62 252 0.0 2.0 0.00 0.00 0.00 71 1013.8
20260509094525 62 213 0.0 1.0 0.00 0.00 0.00 67 1013.9
20260509094025 62 236 0.0 1.0 0.00 0.00 0.00 66 1014.1
20260509093525 61 188 0.0 2.0 0.00 0.00 0.00 74 1013.8
20260509093004 60 125 1.0 3.0 0.00 0.00 0.00 77 1014.0
20260509092525 60 271 1.0 3.0 0.00 0.00 0.00 76 1014.1
20260509092004 60 249 1.0 2.0 0.00 0.00 0.00 76 1013.9
20260509091504 60 234 0.0 2.0 0.00 0.00 0.00 78 1014.0
20260509091004 60 251 0.0 2.0 0.00 0.00 0.00 79 1014.0
20260509090504 59 248 0.0 2.0 0.00 0.00 0.00 79 1013.9
20260509090004 59 113 0.0 2.0 0.00 0.00 0.00 81 1013.9
20260509085504 59 199 0.0 2.0 0.00 0.00 0.00 80 1014.2
20260509085004 59 203 0.0 2.0 0.00 0.00 0.00 81 1014.2
20260509084504 58 218 1.0 2.0 0.00 0.00 0.00 81 1014.0
20260509084025 59 239 0.0 2.0 0.00 0.00 0.00 79 1013.9
20260509083504 58 291 0.0 2.0 0.00 0.00 0.00 82 1014.0
20260509083004 58 19 0.0 3.0 0.00 0.00 0.00 80 1014.2
20260509082504 56 255 1.0 3.0 0.00 0.00 0.00 84 1014.2
20260509082024 56 254 1.0 3.0 0.00 0.00 0.00 85 1014.7
20260509081504 55 257 0.0 2.0 0.00 0.00 0.00 86 1014.7
20260509081004 56 265 0.0 2.0 0.00 0.00 0.00 86 1014.1
20260509080504 54 265 1.0 2.0 0.00 0.00 0.00 87 1014.6
20260509080004 54 260 1.0 2.0 0.00 0.00 0.00 87 1014.6
20260509075507 54 261 0.0 2.0 0.00 0.00 0.00 88 1014.7
20260509075004 54 251 1.0 3.0 0.00 0.00 0.00 90 1014.7
20260509074524 53 257 1.0 3.0 0.00 0.00 0.00 91 1014.6
20260509074004 53 266 2.0 3.0 0.00 0.00 0.00 91 1014.6
20260509073504 53 272 2.0 4.0 0.00 0.00 0.00 93 1014.7
20260509073004 52 270 2.0 4.0 0.00 0.00 0.00 94 1014.6
20260509072503 52 269 2.0 3.0 0.00 0.00 0.00 95 1014.5
20260509072004 51 270 1.0 3.0 0.00 0.00 0.00 96 1014.2
20260509071525 51 262 1.0 2.0 0.00 0.00 0.00 96 1014.2
20260509071004 51 259 1.0 2.0 0.00 0.00 0.00 96 1014.0
20260509070504 51 256 1.0 2.0 0.00 0.00 0.00 96 1013.9
20260509070004 51 260 0.0 3.0 0.00 0.00 0.00 95 1013.9
20260509065504 51 347 1.0 3.0 0.00 0.00 0.00 95 1014.1
20260509065004 51 24 0.0 2.0 0.00 0.00 0.00 95 1014.1
20260509064503 51 246 0.0 1.0 0.00 0.00 0.00 96 1013.9
20260509064004 50 241 0.0 1.0 0.00 0.00 0.00 96 1014.1
20260509063524 50 241 0.0 1.0 0.00 0.00 0.00 96 1014.1
20260509063004 50 233 0.0 1.0 0.00 0.00 0.00 96 1014.5
20260509062504 50 0 0.0 0.0 0.00 0.00 0.00 97 1014.5
20260509062004 50 0 0.0 0.0 0.00 0.00 0.00 97 1014.6
20260509061504 50 0 0.0 0.0 0.00 0.00 0.00 97 1014.6
20260509061003 49 0 0.0 0.0 0.00 0.00 0.00 97 1014.5
20260509060525 49 232 0.0 1.0 0.00 0.00 0.00 97 1014.7
20260509060025 49 232 0.0 1.0 0.00 0.00 0.00 97 1014.7
20260509055503 50 0 0.0 0.0 0.00 0.00 0.00 97 1014.8
20260509055003 49 222 0.0 1.0 0.00 0.00 0.00 97 1014.8
20260509054504 49 222 0.0 1.0 0.00 0.00 0.00 97 1014.7
20260509054004 49 228 0.0 1.0 0.00 0.00 0.00 100 1014.8
20260509053504 49 229 0.0 1.0 0.00 0.00 0.00 97 1014.8
20260509053003 49 224 0.0 1.0 0.00 0.00 0.00 100 1014.8
20260509052503 49 0 0.0 0.0 0.00 0.00 0.00 100 1014.9
20260509052004 48 0 0.0 0.0 0.00 0.00 0.00 100 1014.9
20260509051504 48 226 0.0 1.0 0.00 0.00 0.00 100 1014.9
20260509051003 48 223 1.0 2.0 0.00 0.00 0.00 100 1014.6
20260509050524 48 224 1.0 2.0 0.00 0.00 0.00 100 1014.7
20260509050004 48 227 0.0 1.0 0.00 0.00 0.00 100 1014.8
20260509045525 48 235 0.0 1.0 0.00 0.00 0.00 100 1014.8
20260509045003 48 235 0.0 1.0 0.00 0.00 0.00 100 1014.7
20260509044524 48 0 0.0 0.0 0.00 0.00 0.00 100 1014.6
20260509044004 48 0 0.0 0.0 0.00 0.00 0.00 100 1014.6
20260509043504 48 230 0.0 1.0 0.00 0.00 0.00 100 1014.3
20260509043003 48 230 0.0 1.0 0.00 0.00 0.00 100 1014.5
20260509042504 48 226 0.0 1.0 0.00 0.00 0.00 100 1014.5
20260509042004 48 226 0.0 1.0 0.00 0.00 0.00 100 1014.2
20260509041503 48 0 0.0 0.0 0.00 0.00 0.00 100 1014.6
20260509041003 48 0 0.0 0.0 0.00 0.00 0.00 97 1014.8
20260509040503 49 226 0.0 1.0 0.00 0.00 0.00 97 1014.3
20260509040004 49 224 0.0 1.0 0.00 0.00 0.00 97 1014.5
20260509035503 49 225 0.0 1.0 0.00 0.00 0.00 100 1014.5
20260509035004 49 225 0.0 1.0 0.00 0.00 0.00 100 1014.6
20260509034503 49 225 0.0 1.0 0.00 0.00 0.00 100 1014.9
20260509034003 48 224 0.0 1.0 0.00 0.00 0.00 100 1014.9
20260509033504 49 224 0.0 1.0 0.00 0.00 0.00 100 1014.9
20260509033003 49 222 0.0 1.0 0.00 0.00 0.00 100 1015.1
20260509032524 49 234 0.0 1.0 0.00 0.00 0.00 100 1015.0
20260509032003 49 234 0.0 1.0 0.00 0.00 0.00 97 1015.2
20260509031524 49 234 0.0 1.0 0.00 0.00 0.00 97 1015.1
20260509031003 49 0 0.0 0.0 0.00 0.00 0.00 96 1015.2
20260509030503 50 0 0.0 0.0 0.00 0.00 0.00 96 1015.1
20260509030004 50 225 0.0 1.0 0.00 0.00 0.00 96 1015.0
20260509025503 50 226 1.0 1.0 0.00 0.00 0.00 96 1015.2
20260509025003 50 226 1.0 1.0 0.00 0.00 0.00 96 1015.3
20260509024503 50 223 1.0 2.0 0.00 0.00 0.00 96 1015.4
20260509024003 50 224 1.0 2.0 0.00 0.00 0.00 96 1015.5
20260509023524 50 222 0.0 2.0 0.00 0.00 0.00 96 1015.4
20260509023003 50 192 0.0 1.0 0.00 0.00 0.00 97 1015.3
20260509022503 50 0 0.0 0.0 0.00 0.00 0.00 97 1015.3
20260509022003 49 0 0.0 0.0 0.00 0.00 0.00 97 1015.3
20260509021525 49 0 0.0 0.0 0.00 0.00 0.00 97 1015.5
20260509021003 49 183 0.0 1.0 0.00 0.00 0.00 96 1015.4
20260509020524 50 188 0.0 1.0 0.00 0.00 0.00 96 1015.4
20260509020003 50 190 0.0 1.0 0.00 0.00 0.00 96 1015.5
20260509015524 50 179 1.0 2.0 0.00 0.00 0.00 96 1015.6
20260509015003 50 178 0.0 2.0 0.00 0.00 0.00 96 1015.6
20260509014503 51 227 0.0 1.0 0.00 0.00 0.00 96 1015.5
20260509014003 50 230 0.0 1.0 0.00 0.00 0.00 96 1015.4
20260509013503 50 224 0.0 1.0 0.00 0.00 0.00 96 1015.3
20260509013003 50 225 0.0 1.0 0.00 0.00 0.00 96 1015.3
20260509012503 49 235 0.0 1.0 0.00 0.00 0.00 96 1015.4
20260509012003 50 0 0.0 0.0 0.00 0.00 0.00 96 1015.4
20260509011524 50 0 0.0 0.0 0.00 0.00 0.00 95 1015.7
20260509011004 50 225 0.0 1.0 0.00 0.00 0.00 95 1015.5
20260509010503 50 198 0.0 1.0 0.00 0.00 0.00 95 1015.6
20260509010004 51 166 1.0 2.0 0.00 0.00 0.00 94 1015.7
20260509005525 51 163 1.0 2.0 0.00 0.00 0.00 94 1015.8
20260509005004 51 166 0.0 1.0 0.00 0.00 0.00 95 1016.1
20260509004504 50 0 0.0 0.0 0.00 0.00 0.00 95 1015.9
20260509004004 50 231 0.0 1.0 0.00 0.00 0.00 95 1015.9
20260509003504 50 236 0.0 1.0 0.00 0.00 0.00 95 1016.2
20260509003004 50 239 0.0 1.0 0.00 0.00 0.00 95 1016.3
20260509002504 50 240 0.0 1.0 0.00 0.00 0.00 95 1015.9
20260509002004 50 228 0.0 1.0 0.00 0.00 0.00 95 1016.1
20260509001504 50 228 0.0 1.0 0.00 0.00 0.00 95 1016.1
20260509001004 50 0 0.0 0.0 0.00 0.00 0.00 94 1015.9
20260509000526 50 0 0.0 0.0 0.00 0.00 0.00 94 1015.8
20260509000005 51 244 0.0 2.0 0.00 0.00 0.00 93 1016.2
20260508235504 51 246 0.0 2.0 0.00 0.00 0.00 93 1015.9
20260508235025 51 230 0.0 1.0 0.00 0.00 0.00 92 1015.7
20260508234525 52 225 0.0 1.0 0.00 0.00 0.00 92 1015.9
20260508234005 52 223 0.0 1.0 0.00 0.00 0.00 92 1015.9
20260508233504 51 223 0.0 1.0 0.00 0.00 0.00 92 1015.8
20260508233025 51 226 0.0 1.0 0.00 0.00 0.00 93 1015.9
20260508232504 52 246 0.0 1.0 0.00 0.00 0.00 93 1016.1
20260508232004 51 228 0.0 1.0 0.00 0.00 0.00 93 1015.8
20260508231504 52 226 0.0 1.0 0.00 0.00 0.00 92 1015.9
20260508231004 52 232 0.0 1.0 0.00 0.00 0.00 92 1015.8
20260508230505 52 235 0.0 1.0 0.00 0.00 0.00 90 1015.8
20260508230004 53 232 0.0 1.0 0.00 0.01 0.00 90 1015.8
20260508225525 53 233 0.0 1.0 0.00 0.01 0.00 90 1015.8
20260508225004 53 235 0.0 1.0 0.00 0.01 0.00 90 1015.7
20260508224525 53 0 0.0 0.0 0.00 0.02 0.00 91 1015.7
20260508224004 53 0 0.0 0.0 0.00 0.02 0.00 91 1015.7
20260508223525 53 228 0.0 1.0 0.00 0.03 0.00 90 1015.9
20260508223004 53 228 0.0 1.0 0.00 0.05 0.00 89 1015.6
20260508222504 53 0 0.0 0.0 0.00 0.07 0.00 89 1015.7
20260508222025 53 236 0.0 1.0 0.00 0.08 0.00 89 1015.7
20260508221504 53 232 1.0 1.0 0.00 0.09 0.00 88 1015.6
20260508221004 53 230 1.0 1.0 0.00 0.10 0.00 89 1015.8
20260508220504 53 232 0.0 1.0 0.00 0.11 0.00 88 1015.8
20260508220004 54 213 0.0 2.0 0.00 0.13 0.00 86 1015.9
20260508215505 54 203 0.0 2.0 0.00 0.13 0.00 85 1015.7
20260508215004 54 212 0.0 2.0 0.00 0.13 0.00 84 1015.8
20260508214504 54 222 0.0 2.0 0.00 0.14 0.00 84 1015.7
20260508214004 54 228 0.0 2.0 0.00 0.15 0.00 85 1015.8
20260508213504 54 224 0.0 2.0 0.00 0.17 0.00 84 1015.8
20260508213004 54 224 0.0 2.0 0.00 0.18 0.00 84 1015.7
20260508212504 54 228 0.0 1.0 0.00 0.19 0.00 83 1015.6
20260508212025 54 229 0.0 1.0 0.00 0.20 0.00 84 1015.7
20260508211504 54 232 0.0 1.0 0.00 0.21 0.00 83 1015.7
20260508211025 54 233 0.0 1.0 0.00 0.21 0.00 83 1015.8
20260508210504 54 231 1.0 2.0 0.00 0.22 0.00 83 1015.7
20260508210026 54 228 1.0 2.0 0.00 0.23 0.00 82 1015.6
20260508205504 54 231 1.0 2.0 0.00 0.24 0.00 82 1015.5
20260508205004 54 239 0.0 1.0 0.00 0.25 0.00 82 1015.5
20260508204504 55 232 0.0 1.0 0.00 0.27 0.00 81 1015.3
20260508204005 55 231 0.0 1.0 0.00 0.32 0.00 79 1015.2
20260508203504 56 224 0.0 1.0 0.00 0.38 0.00 78 1015.0
20260508203004 57 223 0.0 1.0 0.00 0.46 0.00 77 1015.1
20260508202504 56 206 0.0 1.0 0.00 0.57 0.00 77 1015.2
20260508202004 57 212 0.0 2.0 0.00 0.59 0.00 76 1014.9
20260508201504 56 226 1.0 3.0 0.00 0.67 0.00 76 1014.9
20260508201004 57 242 1.0 3.0 0.00 0.70 0.00 75 1014.8
20260508200504 57 254 1.0 3.0 0.00 0.70 0.00 73 1014.9
20260508200004 58 232 0.0 2.0 0.00 0.70 0.00 74 1014.9
20260508195504 58 216 0.0 1.0 0.00 0.70 0.00 73 1014.5
20260508195004 58 218 0.0 2.0 0.00 0.70 0.00 73 1014.8
20260508194504 58 196 1.0 2.0 0.00 0.70 0.00 74 1014.6
20260508194004 59 178 1.0 2.0 0.00 0.70 0.00 72 1014.5
20260508193504 59 212 1.0 2.0 0.00 0.70 0.00 72 1014.6
20260508193004 59 228 1.0 3.0 0.00 0.70 0.00 71 1014.3
20260508192504 59 231 1.0 3.0 0.00 0.70 0.00 70 1014.5
20260508192004 59 259 2.0 6.0 0.00 0.70 0.00 70 1014.1
20260508191504 59 265 2.0 6.0 0.00 0.70 0.00 70 1014.3
20260508191004 59 261 2.0 4.0 0.00 0.70 0.00 71 1014.2
20260508190504 59 255 2.0 6.0 0.00 0.70 0.00 71 1013.9
20260508190004 59 263 2.0 6.0 0.00 0.70 0.00 72 1014.1
20260508185504 59 277 3.0 6.0 0.00 0.70 0.00 72 1013.8
20260508185004 60 272 3.0 8.0 0.00 0.70 0.00 72 1014.0
20260508184504 60 273 4.0 8.0 0.00 0.70 0.00 71 1014.0
20260508184025 60 289 4.0 9.0 0.00 0.70 0.00 71 1013.9
20260508183525 61 293 4.0 9.0 0.00 0.70 0.00 70 1013.9
20260508183004 61 286 4.0 8.0 0.00 0.70 0.00 69 1013.7
20260508182525 61 293 5.0 9.0 0.00 0.70 0.00 69 1013.7
20260508182004 61 298 5.0 9.0 0.00 0.70 0.00 68 1013.6
20260508181504 62 298 4.0 8.0 0.00 0.70 0.00 67 1013.4
20260508181004 62 290 4.0 9.0 0.00 0.70 0.00 66 1013.5
20260508180504 62 285 4.0 10.0 0.00 0.70 0.00 65 1013.4
20260508180004 62 289 5.0 10.0 0.00 0.70 0.00 65 1013.2
20260508175525 62 299 5.0 9.0 0.00 0.70 0.00 64 1013.3
20260508175004 62 297 5.0 10.0 0.00 0.70 0.00 65 1013.4
20260508174504 62 298 5.0 10.0 0.00 0.70 0.00 65 1013.3
20260508174004 63 305 5.0 10.0 0.00 0.70 0.00 64 1013.3
20260508173504 64 303 4.0 9.0 0.00 0.70 0.00 62 1013.5
20260508173004 64 306 4.0 9.0 0.00 0.70 0.00 63 1013.2
20260508172525 63 306 5.0 9.0 0.00 0.70 0.00 64 1013.3
20260508172004 63 297 5.0 10.0 0.00 0.70 0.00 61 1013.4
20260508171504 62 312 5.0 10.0 0.00 0.70 0.00 63 1013.3
20260508171004 62 316 4.0 9.0 0.00 0.70 0.00 64 1013.2
20260508170504 62 304 4.0 9.0 0.00 0.70 0.00 65 1013.2
20260508170004 62 298 4.0 8.0 0.00 0.70 0.00 64 1013.3
20260508165504 62 289 4.0 8.0 0.00 0.70 0.00 64 1013.4
20260508165025 62 295 4.0 9.0 0.00 0.70 0.00 65 1013.4
20260508164504 63 302 4.0 9.0 0.00 0.70 0.00 65 1013.4
20260508164004 63 293 3.0 9.0 0.00 0.70 0.00 64 1013.4
20260508163504 63 289 3.0 8.0 0.00 0.70 0.00 65 1013.4
20260508163004 63 298 4.0 8.0 0.00 0.70 0.00 63 1013.4
20260508162504 63 296 4.0 8.0 0.00 0.70 0.00 65 1013.2
20260508162004 64 290 5.0 10.0 0.00 0.70 0.00 63 1013.2
20260508161504 64 296 4.0 10.0 0.00 0.70 0.00 63 1013.1
20260508161025 65 307 4.0 8.0 0.00 0.70 0.00 64 1013.3
20260508160504 65 296 4.0 9.0 0.00 0.70 0.00 60 1013.2
20260508160004 66 291 3.0 9.0 0.00 0.70 0.00 57 1013.3
20260508155504 70 288 2.0 6.0 0.00 0.70 0.00 54 1013.1
20260508155004 69 283 2.0 6.0 0.00 0.70 0.00 54 1013.1
20260508154504 67 259 2.0 6.0 0.00 0.70 0.00 54 1013.1
20260508154004 64 259 2.0 4.0 0.00 0.70 0.00 57 1013.0
20260508153525 65 277 2.0 8.0 0.00 0.70 0.00 59 1013.1
20260508153004 66 285 3.0 9.0 0.00 0.70 0.00 57 1013.2
20260508152525 67 298 3.0 9.0 0.00 0.70 0.00 53 1013.1
20260508152004 67 303 4.0 8.0 0.00 0.70 0.00 56 1013.1
20260508151504 67 297 3.0 8.0 0.00 0.70 0.00 51 1013.3
20260508151004 67 288 3.0 8.0 0.00 0.70 0.00 55 1013.1
20260508150504 67 284 3.0 8.0 0.00 0.70 0.00 54 1013.3
20260508150004 67 286 4.0 8.0 0.00 0.70 0.00 56 1013.3
20260508145504 67 292 4.0 8.0 0.00 0.70 0.00 55 1013.5
20260508145004 66 299 4.0 8.0 0.00 0.70 0.00 58 1013.3
20260508144504 67 299 3.0 8.0 0.00 0.70 0.00 55 1013.8
20260508144004 67 302 4.0 11.0 0.00 0.70 0.00 52 1013.7
20260508143504 66 303 5.0 11.0 0.00 0.70 0.00 58 1013.7
20260508143025 68 304 4.0 11.0 0.00 0.70 0.00 55 1013.8
20260508142504 66 296 5.0 11.0 0.00 0.70 0.00 57 1013.8
20260508142004 67 292 3.0 10.0 0.00 0.70 0.00 56 1014.0